{"data":{"norad_id":63413,"epoch":"2026-09-20T21:12:34.247808Z","epoch_age_seconds":125571,"freshness":"FRESH","line1":"1 63413U 25065Q   26263.88372972  .00009736  00000+0  36278-3 0  9993","line2":"2 63413  43.0031  84.5748 0000895  16.1849 343.9031 15.27585955 82697","mean_motion":15.27585955,"eccentricity":8.95e-5,"inclination_deg":43.0031,"raan_deg":84.5748,"arg_perigee_deg":16.1849,"mean_anomaly_deg":343.9031,"bstar":0.00036278,"rev_number":8269,"period_min":94.266381232865,"perigee_km":482.41719012559,"apogee_km":483.64533924497,"semimajor_km":6861.1682646853,"source":"CELESTRAK","updated_at":"2026-09-21T09:00:34.980589Z"}}